This is the latest recevied weather packets stored in our database for station/object KE6LRO. If no packets are shown the sender has not sent any weather packets the latest 10 day(s).
| Time | Temp. | Humidity | Pressure | Rain* | Wind** | Luminosity | Snow |
|---|---|---|---|---|---|---|---|
| 1777869434 | 8.33° C | 83% | 1015.2 hPa | 0 mm | - | 0 W/m² | - |
| 1777869130 | 8.33° C | 81% | 1015.1 hPa | 0 mm | - | 0 W/m² | - |
| 1777868828 | 8.33° C | 79% | 1015.3 hPa | 0 mm | - | 0 W/m² | - |
| 1777868524 | 8.89° C | 78% | 1014.8 hPa | 0 mm | - | 0 W/m² | - |
| 1777868220 | 8.89° C | 79% | 1014.9 hPa | 0 mm | - | 0 W/m² | - |
| 1777867916 | 8.89° C | 78% | 1015.1 hPa | 0 mm | - | 0 W/m² | - |
| 1777867613 | 8.89° C | 79% | 1014.9 hPa | 0 mm | - | 0 W/m² | - |
| 1777867310 | 9.44° C | 78% | 1014.7 hPa | 0 mm | - | 0 W/m² | - |
| 1777867007 | 9.44° C | 76% | 1014.8 hPa | 0 mm | - | 0 W/m² | - |
| 1777866704 | 9.44° C | 75% | 1014.5 hPa | 0 mm | - | 0 W/m² | - |
| 1777866401 | 10° C | 74% | 1014.5 hPa | 0 mm | - | 0 W/m² | - |
| 1777866098 | 10° C | 75% | 1014.5 hPa | 0 mm | - | 0 W/m² | - |
| 1777865796 | 10° C | 74% | 1014.4 hPa | 0 mm | - | 0 W/m² | - |
| 1777865493 | 10.56° C | 71% | 1014.4 hPa | 0 mm | - | 0 W/m² | - |
| 1777865190 | 10.56° C | 71% | 1014.4 hPa | 0 mm | - | 0 W/m² | - |
| 1777864887 | 11.11° C | 72% | 1014.2 hPa | 0 mm | - | 0 W/m² | - |
| 1777864584 | 11.11° C | 68% | 1014.1 hPa | 0 mm | - | 0 W/m² | - |
| 1777864280 | 11.11° C | 68% | 1014.2 hPa | 0 mm | - | 0 W/m² | - |
| 1777863977 | 11.67° C | 66% | 1013.9 hPa | 0 mm | - | 0 W/m² | - |
| 1777863674 | 11.67° C | 65% | 1014.2 hPa | 0 mm | - | 1 W/m² | - |
| 1777863370 | 12.22° C | 64% | 1013.9 hPa | 0 mm | - | 2 W/m² | - |
| 1777863067 | 12.22° C | 64% | 1013.8 hPa | 0 mm | - | 3 W/m² | - |
| 1777862765 | 12.78° C | 63% | 1013.7 hPa | 0 mm | - | 5 W/m² | - |
| 1777862461 | 12.78° C | 63% | 1013.9 hPa | 0 mm | - | 7 W/m² | - |
| 1777862158 | 13.33° C | 62% | 1013.8 hPa | 0 mm | - | 9 W/m² | - |
* Rain latest hour (hover to see other rain measurements)
** Current wind speed in m/s (hover to see current wind gust speed)